sat.trackr.live / text

‹ back to catalog

JCSAT-110A (JCSAT-15)

NORAD 41903 · 2016-082A

PAYLOAD ACTIVE UNKNOWN

§ Identity

Operator
Country
JPN
Launch date
2016-12-21
Launch site
FRGUI
Launch vehicle
Mass (kg)
RCS (m²)
71.04

Purposes: comms

External: N2YO · Heavens-Above · Gunter

§ Orbital elements

Epoch: 2026-09-19T14:51:04.886784Z

Period
1,436.11 min
Inclination
0.0188°
Eccentricity
0.0000644
Mean motion
1.00270895 rev/d
Perigee alt
35,784.1 km
Apogee alt
35,789.6 km
Semi-major
42,165.0 km
B*
0.0000e+0
RAAN
159.0408°
Arg perigee
17.4514°
Mean anomaly
154.8844°
Rev number
3,570

§ Raw data

JCSAT-110A (JCSAT-15)1 41903U 16082A   26262.61880656 -.00000355  00000+0  00000+0 0  99942 41903   0.0188 159.0408 0000644  17.4514 154.8844  1.00270895 35700

JSON: /api/v1/satellites/41903 · /tle

For live sub-satellite position, see the globe view (requires WebGL).

§ Visibility from observer

Set your observer location to see the next 7 days of passes ≥ 10°. The values pass through the URL so the page stays shareable.

No JS? Fill the form by hand. The geolocation button needs JavaScript.